Weather History for Cody, WY

Change the Weather History Date:

Monday, January 14, 2013

  Actual Average Record
Temperature  
Mean Temperature 3 °F -  
Max Temperature 15 °F 36 °F 59 °F (2006)
Min Temperature -9 °F 16 °F -21 °F (1972)
Degree Days  
Heating Degree Days 62    
Moisture  
Dew Point -2 °F    
Average Humidity 84    
Maximum Humidity 100    
Minimum Humidity 38    
Precipitation  
Precipitation 0.00 in - - ()
Sea Level Pressure  
Sea Level Pressure 29.98 in    
Wind  
Wind Speed 2 mph (NNW)    
Max Wind Speed 17 mph    
Max Gust Speed 26 mph    
Visibility 10 miles    
Events      
Averages and records for this station are not official NWS values.
T = Trace of Precipitation, MM = Missing Value Source: NWS Daily Summary

Daily Weather History Graph

Daily Weather History Graph

Search for Another Location

Airport:

Trip Planner

Search our weather history database for the weather conditions in past years. The results will help you decide how hot, cold, wet, or windy it might be!

Date:

Astronomy

Jan. 14, 2013 Rise Set
Actual Time 7:49 AM MST 5:01 PM MST
Civil Twilight 7:17 AM MST 5:33 PM MST
Nautical Twilight 6:41 AM MST 6:10 PM MST
Astronomical Twilight 6:06 AM MST 6:44 PM MST
Moon 9:15 AM MST (1/14) 9:01 PM MST (1/14)
Length of Visible Light 10h 16m
Length of Day
9h 11m
Waxing Crescent, 12% of the Moon is Illuminated
Jan 14
Waxing Crescent
Jan 18
First Quarter
Jan 26
Full
Feb 3
Last Quarter
Feb 10
New

Hourly Weather History & Observations

Time (MST) Temp. Windchill Dew Point Humidity Pressure Visibility Wind Dir Wind Speed Gust Speed Precip Events Conditions
12:15 AM -4.0 °F - -4.0 °F 100% 30.01 in 10.0 mi Calm Calm - N/A   Overcast
12:35 AM -2.2 °F - -4.0 °F 92% 30.01 in 10.0 mi Calm Calm - N/A   Overcast
12:55 AM -2.2 °F - -5.8 °F 85% 30.01 in 10.0 mi Calm Calm - N/A   Overcast
1:15 AM -2.2 °F -10.4 °F -4.0 °F 92% 30.02 in 10.0 mi NNW 3.5 mph - N/A   Overcast
1:55 AM -2.2 °F -14.2 °F -5.8 °F 85% 30.03 in 10.0 mi NE 5.8 mph - N/A   Overcast
2:15 AM -2.2 °F -12.5 °F -2.2 °F 100% 30.04 in 10.0 mi NE 4.6 mph - N/A   Overcast
2:35 AM -0.4 °F - -2.2 °F 92% 30.04 in 10.0 mi Calm Calm - N/A   Overcast
3:15 AM -2.2 °F - -4.0 °F 92% 30.04 in 10.0 mi Calm Calm - N/A   Overcast
3:35 AM -2.2 °F - -4.0 °F 92% 30.04 in 10.0 mi Calm Calm - N/A   Overcast
3:55 AM -2.2 °F -10.4 °F -4.0 °F 92% 30.03 in 10.0 mi SSE 3.5 mph - N/A   Overcast
4:15 AM -2.2 °F -10.4 °F -4.0 °F 92% 30.03 in 10.0 mi NNW 3.5 mph - N/A   Scattered Clouds
4:35 AM -2.2 °F - -5.8 °F 85% 30.02 in 10.0 mi Calm Calm - N/A   Clear
4:55 AM -5.8 °F -14.5 °F -7.6 °F 92% 30.02 in 10.0 mi NE 3.5 mph - N/A   Clear
5:15 AM -4.0 °F - -4.0 °F 100% 30.02 in 10.0 mi Calm Calm - N/A   Clear
5:35 AM -7.6 °F - -11.2 °F 84% 30.02 in 10.0 mi Calm Calm - N/A   Clear
5:55 AM -5.8 °F - -5.8 °F 100% 30.03 in 10.0 mi Calm Calm - N/A   Clear
6:15 AM -5.8 °F - -9.4 °F 84% 30.03 in 4.0 mi Calm Calm - N/A   Clear
6:35 AM -7.6 °F -18.8 °F -7.6 °F 100% 30.03 in 2.5 mi NNE 4.6 mph - N/A   Clear
7:15 AM -7.6 °F - -7.6 °F 100% 30.03 in 10.0 mi Calm Calm - N/A   Clear
7:35 AM -9.4 °F - -11.2 °F 92% 30.04 in 10.0 mi Calm Calm - N/A   Clear
7:55 AM -7.6 °F - -7.6 °F 100% 30.03 in 10.0 mi Calm Calm - N/A   Clear
8:15 AM -7.6 °F - -11.2 °F 84% 30.04 in 10.0 mi Calm Calm - N/A   Clear
8:35 AM -7.6 °F - -7.6 °F 100% 30.04 in 10.0 mi Calm Calm - N/A   Clear
8:55 AM -7.6 °F -18.8 °F -9.4 °F 92% 30.05 in 9.0 mi North 4.6 mph - N/A   Clear
9:15 AM -7.6 °F - -7.6 °F 100% 30.05 in 5.0 mi Calm Calm - N/A   Clear
9:35 AM -5.8 °F - -5.8 °F 100% 30.04 in 10.0 mi Calm Calm - N/A   Clear
9:55 AM -2.2 °F -10.4 °F -5.8 °F 85% 30.04 in 10.0 mi SE 3.5 mph - N/A   Clear
10:15 AM -4.0 °F -14.6 °F -7.6 °F 85% 30.03 in 10.0 mi North 4.6 mph - N/A   Clear
10:35 AM -0.4 °F -12.0 °F -0.4 °F 100% 30.01 in 10.0 mi SW 5.8 mph - N/A   Clear
10:55 AM 5.0 °F -6.9 °F 3.2 °F 92% 30.01 in 10.0 mi West 6.9 mph - N/A   Clear
11:15 AM 8.6 °F -9.5 °F 5.0 °F 85% 29.99 in 9.0 mi West 17.3 mph 26.5 mph N/A   Clear
11:35 AM 12.2 °F -1.8 °F -0.4 °F 57% 29.98 in 10.0 mi WNW 11.5 mph 20.7 mph N/A   Clear
11:55 AM 14.0 °F 5.1 °F -2.2 °F 49% 29.97 in 10.0 mi West 5.8 mph - N/A   Clear
12:15 PM 15.8 °F 5.1 °F -5.8 °F 38% 29.95 in 10.0 mi SSW 8.1 mph - N/A   Clear
12:35 PM 15.8 °F 8.6 °F -2.2 °F 45% 29.94 in 10.0 mi WSW 4.6 mph 19.6 mph N/A   Clear
1:15 PM 3.2 °F -7.8 °F -2.2 °F 78% 29.93 in 10.0 mi NNE 5.8 mph - N/A   Clear
1:35 PM 3.2 °F -7.8 °F -0.4 °F 85% 29.93 in 10.0 mi NNE 5.8 mph - N/A   Clear
1:55 PM 3.2 °F - 1.4 °F 92% 29.93 in 10.0 mi Calm Calm - N/A   Clear
2:15 PM 3.2 °F - -0.4 °F 85% 29.93 in 10.0 mi Calm Calm - N/A   Clear
2:35 PM 5.0 °F -4.1 °F 1.4 °F 85% 29.93 in 10.0 mi NNW 4.6 mph - N/A   Clear
2:55 PM 5.0 °F - -0.4 °F 78% 29.92 in 10.0 mi Calm Calm - N/A   Partly Cloudy
3:15 PM 6.8 °F -2.0 °F 1.4 °F 79% 29.91 in 10.0 mi WSW 4.6 mph - N/A   Mostly Cloudy
3:35 PM 6.8 °F -2.0 °F 1.4 °F 79% 29.91 in 10.0 mi NNW 4.6 mph - N/A   Overcast
3:55 PM 8.6 °F -1.3 °F 3.2 °F 79% 29.90 in 10.0 mi WNW 5.8 mph - N/A   Mostly Cloudy
4:15 PM 8.6 °F 0.1 °F 1.4 °F 73% 29.91 in 10.0 mi NW 4.6 mph - N/A   Partly Cloudy
4:35 PM 6.8 °F -4.8 °F -0.4 °F 72% 29.92 in 10.0 mi NW 6.9 mph - N/A   Clear
4:55 PM 5.0 °F -6.9 °F -0.4 °F 78% 29.94 in 10.0 mi NW 6.9 mph - N/A   Clear
5:15 PM 3.2 °F -10.3 °F -0.4 °F 85% 29.95 in 10.0 mi NNE 8.1 mph - N/A   Partly Cloudy
5:55 PM 5.0 °F -2.1 °F -0.4 °F 78% 29.94 in 10.0 mi North 3.5 mph - N/A   Overcast
6:15 PM 5.0 °F - 1.4 °F 85% 29.94 in 10.0 mi Calm Calm - N/A   Overcast
6:35 PM 6.8 °F -2.0 °F 1.4 °F 79% 29.93 in 10.0 mi WNW 4.6 mph - N/A   Mostly Cloudy
6:55 PM 5.0 °F -6.9 °F -0.4 °F 78% 29.93 in 10.0 mi North 6.9 mph - N/A   Partly Cloudy
7:35 PM 6.8 °F - -0.4 °F 72% 29.94 in 10.0 mi Calm Calm - N/A   Overcast
7:55 PM 6.8 °F - 1.4 °F 79% 29.94 in 10.0 mi Calm Calm - N/A   Overcast
8:15 PM 6.8 °F - 1.4 °F 79% 29.94 in 10.0 mi Calm Calm - N/A   Overcast
8:35 PM 6.8 °F -3.5 °F 1.4 °F 79% 29.95 in 10.0 mi NE 5.8 mph - N/A   Overcast
8:55 PM 8.6 °F 0.1 °F 3.2 °F 79% 29.95 in 10.0 mi North 4.6 mph - N/A   Overcast
9:15 PM 8.6 °F - 3.2 °F 79% 29.95 in 10.0 mi Calm Calm - N/A   Overcast
9:35 PM 8.6 °F -1.3 °F 1.4 °F 73% 29.96 in 10.0 mi NNE 5.8 mph - N/A   Overcast
9:55 PM 6.8 °F -0.1 °F 1.4 °F 79% 29.96 in 10.0 mi NE 3.5 mph - N/A   Overcast
10:35 PM 8.6 °F - 3.2 °F 79% 29.96 in 10.0 mi Calm Calm - N/A   Overcast
10:55 PM 8.6 °F -2.6 °F 3.2 °F 79% 29.97 in 10.0 mi NNE 6.9 mph - N/A   Overcast
11:15 PM 6.8 °F -2.0 °F 1.4 °F 79% 29.97 in 10.0 mi NNE 4.6 mph - N/A   Overcast
11:35 PM 6.8 °F -0.1 °F 3.2 °F 85% 29.98 in 10.0 mi North 3.5 mph - N/A   Overcast
11:55 PM 6.8 °F - 3.2 °F 85% 29.98 in 10.0 mi Calm Calm - N/A   Overcast